Weather History for Baton Rouge, LA

Change the Weather History Date:

Tuesday, July 23, 2013

  Actual Average Record
Temperature  
Mean Temperature 85 °F 83 °F  
Max Temperature 93 °F 92 °F 99 °F (1924)
Min Temperature 76 °F 74 °F 59 °F (1947)
Degree Days  
Heating Degree Days 0 0  
Month to date heating degree days 0 0  
Since 1 June heating degree days 0 0  
Since 1 July heating degree days 0 0  
Cooling Degree Days 20 18  
Month to date cooling degree days 372 414  
Year to date cooling degree days 1297 1463  
Since 1 June cooling degree days 874 898  
Growing Degree Days 34 (Base 50)    
Moisture  
Dew Point 75 °F    
Average Humidity 73    
Maximum Humidity 97    
Minimum Humidity 49    
Precipitation  
Precipitation 0.00 in 0.15 in 3.18 in (1919)
Month to date precipitation 3.36 3.72  
Year to date precipitation 48.01 34.65  
Snow  
Snow 0.00 in - - ()
Month to date snowfall 0.0  
Since 1 June snowfall 0.0  
Since 1 July snowfall 0.0  
Snow Depth 0.00 in    
Sea Level Pressure  
Sea Level Pressure 30.00 in    
Wind  
Wind Speed 10 mph (SW)    
Max Wind Speed 18 mph    
Max Gust Speed 22 mph    
Visibility 10 miles    
Events      
T = Trace of Precipitation, MM = Missing Value Source: NWS Daily Summary

Daily Weather History Graph

Daily Weather History Graph

Search for Another Location

Airport:

Trip Planner

Search our weather history database for the weather conditions in past years. The results will help you decide how hot, cold, wet, or windy it might be!

Date:

Astronomy

Jul. 23, 2013 Rise Set
Actual Time 6:17 AM CDT 8:04 PM CDT
Civil Twilight 5:50 AM CDT 8:31 PM CDT
Nautical Twilight 5:18 AM CDT 9:03 PM CDT
Astronomical Twilight 4:44 AM CDT 9:36 PM CDT
Moon 8:44 PM CDT (7/23) 7:17 AM CDT (7/23)
Length of Visible Light 14h 40m
Length of Day
13h 47m
Full, 99% of the Moon is Illuminated
Jul 23
Full
Jul 29
Last Quarter
Aug 6
New
Aug 14
First Quarter
Aug 20
Full

Hourly Weather History & Observations

Time (CDT) Temp. Heat Index Dew Point Humidity Pressure Visibility Wind Dir Wind Speed Gust Speed Precip Events Conditions
12:53 AM 80.1 °F 85.4 °F 75.9 °F 87% 30.02 in 10.0 mi SW 10.4 mph - N/A   Clear
1:53 AM 79.0 °F - 77.0 °F 94% 30.01 in 10.0 mi SW 6.9 mph - N/A   Clear
2:53 AM 78.1 °F - 75.9 °F 93% 30.01 in 10.0 mi WSW 8.1 mph - N/A   Partly Cloudy
3:53 AM 77.0 °F - 75.0 °F 94% 30.01 in 9.0 mi WSW 4.6 mph - N/A   Scattered Clouds
4:53 AM 77.0 °F - 75.9 °F 96% 30.01 in 9.0 mi WSW 6.9 mph - N/A   Clear
5:53 AM 77.0 °F - 75.9 °F 96% 30.02 in 8.0 mi WSW 5.8 mph - N/A   Clear
6:53 AM 77.0 °F - 75.9 °F 96% 30.02 in 6.0 mi WSW 4.6 mph - N/A   Partly Cloudy
7:53 AM 79.0 °F - 77.0 °F 94% 30.03 in 8.0 mi SW 8.1 mph - N/A   Partly Cloudy
8:53 AM 81.0 °F 87.9 °F 77.0 °F 88% 30.06 in 10.0 mi WSW 8.1 mph - N/A   Scattered Clouds
9:40 AM 84.2 °F 94.1 °F 77.0 °F 79% 30.06 in 10.0 mi West 11.5 mph 16.1 mph N/A   Mostly Cloudy
9:53 AM 84.9 °F 95.3 °F 77.0 °F 77% 30.06 in 10.0 mi WSW 12.7 mph - N/A   Mostly Cloudy
10:53 AM 87.1 °F 96.3 °F 75.0 °F 67% 30.07 in 10.0 mi WSW 13.8 mph - N/A   Mostly Cloudy
11:53 AM 89.1 °F 99.1 °F 75.0 °F 63% 30.05 in 10.0 mi WSW 11.5 mph - N/A   Mostly Cloudy
12:53 PM 89.1 °F 98.0 °F 73.9 °F 61% 30.03 in 10.0 mi West 15.0 mph - N/A   Scattered Clouds
1:53 PM 91.0 °F 98.2 °F 72.0 °F 53% 30.01 in 10.0 mi WSW 15.0 mph 20.7 mph N/A   Scattered Clouds
2:53 PM 91.0 °F 100.4 °F 73.9 °F 57% 29.98 in 10.0 mi SW 11.5 mph 19.6 mph N/A   Scattered Clouds
3:53 PM 91.0 °F 99.3 °F 73.0 °F 55% 29.97 in 10.0 mi WSW 12.7 mph - N/A   Scattered Clouds
4:53 PM 91.0 °F 96.6 °F 70.0 °F 50% 29.96 in 10.0 mi SW 11.5 mph - N/A   Clear
5:53 PM 90.0 °F 96.4 °F 71.1 °F 54% 29.94 in 10.0 mi SW 12.7 mph - N/A   Clear
6:53 PM 88.0 °F 94.7 °F 72.0 °F 59% 29.93 in 10.0 mi SW 10.4 mph - N/A   Partly Cloudy
7:53 PM 86.0 °F 93.0 °F 73.0 °F 65% 29.93 in 10.0 mi SW 10.4 mph - N/A   Clear
8:53 PM 84.0 °F 91.2 °F 73.9 °F 72% 29.92 in 10.0 mi SW 11.5 mph - N/A   Clear
9:53 PM 82.0 °F 87.9 °F 73.9 °F 76% 29.96 in 10.0 mi SW 9.2 mph - N/A   Clear
10:53 PM 81.0 °F 86.7 °F 75.0 °F 82% 29.97 in 10.0 mi SW 11.5 mph - N/A   Clear
11:53 PM 80.1 °F 85.1 °F 75.0 °F 85% 29.98 in 10.0 mi WSW 8.1 mph - N/A   Clear